Year,Month,Day,Hour,Minute,Value (Times are PST for temperature in C)
2007,08,18,00,00,15.50
2007,08,18,00,01,15.50
2007,08,18,00,02,15.50
2007,08,18,00,03,15.50
2007,08,18,00,04,15.40
2007,08,18,00,05,15.40
2007,08,18,00,06,15.40
2007,08,18,00,07,15.40
2007,08,18,00,08,15.30
2007,08,18,00,09,15.30
2007,08,18,00,10,15.30
2007,08,18,00,11,15.30
2007,08,18,00,12,15.30
2007,08,18,00,13,15.20
2007,08,18,00,14,15.20
2007,08,18,00,15,15.20
2007,08,18,00,16,15.20
2007,08,18,00,17,15.20
2007,08,18,00,18,15.20
2007,08,18,00,19,15.20
2007,08,18,00,20,15.20
2007,08,18,00,21,15.20
2007,08,18,00,22,15.30
2007,08,18,00,23,15.30
2007,08,18,00,24,15.30
2007,08,18,00,25,15.30
2007,08,18,00,26,15.30
2007,08,18,00,27,15.20
2007,08,18,00,28,15.20
2007,08,18,00,29,15.20
2007,08,18,00,30,15.20
2007,08,18,00,31,15.10
2007,08,18,00,32,15.10
2007,08,18,00,33,15.10
2007,08,18,00,34,15.00
2007,08,18,00,35,15.00
2007,08,18,00,36,15.00
2007,08,18,00,37,15.00
2007,08,18,00,38,15.00
2007,08,18,00,39,15.00
2007,08,18,00,40,15.00
2007,08,18,00,41,15.00
2007,08,18,00,42,15.00
2007,08,18,00,43,15.00
2007,08,18,00,44,15.00
2007,08,18,00,45,15.00
2007,08,18,00,46,15.00
2007,08,18,00,47,15.00
2007,08,18,00,48,15.00
2007,08,18,00,49,15.00
2007,08,18,00,50,15.00
2007,08,18,00,51,15.00
2007,08,18,00,52,15.00
2007,08,18,00,53,15.00
2007,08,18,00,54,15.00
2007,08,18,00,55,15.00
2007,08,18,00,56,15.00
2007,08,18,00,57,15.00
2007,08,18,00,58,14.90
2007,08,18,00,59,14.90
2007,08,18,01,00,14.90
2007,08,18,01,01,14.80
2007,08,18,01,02,14.80
2007,08,18,01,03,14.80
2007,08,18,01,04,14.80
2007,08,18,01,05,14.80
2007,08,18,01,06,14.80
2007,08,18,01,07,14.70
2007,08,18,01,08,14.70
2007,08,18,01,09,14.70
2007,08,18,01,10,14.70
2007,08,18,01,11,14.70
2007,08,18,01,12,14.70
2007,08,18,01,13,14.70
2007,08,18,01,14,14.70
2007,08,18,01,15,14.70
2007,08,18,01,16,14.70
2007,08,18,01,17,14.70
2007,08,18,01,18,14.70
2007,08,18,01,19,14.70
2007,08,18,01,20,14.70
2007,08,18,01,21,14.70
2007,08,18,01,22,14.70
2007,08,18,01,23,14.70
2007,08,18,01,24,14.70
2007,08,18,01,25,14.70
2007,08,18,01,26,14.70
2007,08,18,01,27,14.70
2007,08,18,01,28,14.70
2007,08,18,01,29,14.80
2007,08,18,01,30,14.80
2007,08,18,01,31,14.80
2007,08,18,01,32,14.80
2007,08,18,01,33,14.80
2007,08,18,01,34,14.80
2007,08,18,01,35,14.80
2007,08,18,01,36,14.90
2007,08,18,01,37,14.90
2007,08,18,01,38,14.90
2007,08,18,01,39,14.90
2007,08,18,01,40,15.00
2007,08,18,01,41,15.00
2007,08,18,01,42,15.00
2007,08,18,01,43,15.00
2007,08,18,01,44,15.00
2007,08,18,01,45,15.00
2007,08,18,01,46,15.00
2007,08,18,01,47,14.90
2007,08,18,01,48,14.90
2007,08,18,01,49,14.90
2007,08,18,01,50,14.90
2007,08,18,01,51,14.90
2007,08,18,01,52,14.90
2007,08,18,01,53,14.90
2007,08,18,01,54,14.80
2007,08,18,01,55,14.80
2007,08,18,01,56,14.80
2007,08,18,01,57,14.80
2007,08,18,01,58,14.80
2007,08,18,01,59,14.80
2007,08,18,02,00,14.80
2007,08,18,02,01,14.80
2007,08,18,02,02,14.80
2007,08,18,02,03,14.70
2007,08,18,02,04,14.70
2007,08,18,02,05,14.70
2007,08,18,02,06,14.60
2007,08,18,02,07,14.60
2007,08,18,02,08,14.60
2007,08,18,02,09,14.60
2007,08,18,02,10,14.60
2007,08,18,02,11,14.60
2007,08,18,02,12,14.60
2007,08,18,02,13,14.60
2007,08,18,02,14,14.60
2007,08,18,02,15,14.60
2007,08,18,02,16,14.60
2007,08,18,02,17,14.60
2007,08,18,02,18,14.60
2007,08,18,02,19,14.60
2007,08,18,02,20,14.60
2007,08,18,02,21,14.60
2007,08,18,02,22,14.60
2007,08,18,02,23,14.60
2007,08,18,02,24,14.50
2007,08,18,02,25,14.50
2007,08,18,02,26,14.50
2007,08,18,02,27,14.50
2007,08,18,02,28,14.50
2007,08,18,02,29,14.50
2007,08,18,02,30,14.50
2007,08,18,02,31,14.50
2007,08,18,02,32,14.50
2007,08,18,02,33,14.50
2007,08,18,02,34,14.50
2007,08,18,02,35,14.50
2007,08,18,02,36,14.40
2007,08,18,02,37,14.40
2007,08,18,02,38,14.40
2007,08,18,02,39,14.40
2007,08,18,02,40,14.40
2007,08,18,02,41,14.40
2007,08,18,02,42,14.40
2007,08,18,02,43,14.40
2007,08,18,02,44,14.40
2007,08,18,02,45,14.40
2007,08,18,02,46,14.40
2007,08,18,02,47,14.40
2007,08,18,02,48,14.40
2007,08,18,02,49,14.40
2007,08,18,02,50,14.40
2007,08,18,02,51,14.40
2007,08,18,02,52,14.40
2007,08,18,02,53,14.50
2007,08,18,02,54,14.50
2007,08,18,02,55,14.60
2007,08,18,02,56,14.60
2007,08,18,02,57,14.60
2007,08,18,02,58,14.60
2007,08,18,02,59,14.60
2007,08,18,03,00,14.60
2007,08,18,03,01,14.60
2007,08,18,03,02,14.60
2007,08,18,03,03,14.70
2007,08,18,03,04,14.70
2007,08,18,03,05,14.70
2007,08,18,03,06,14.70
2007,08,18,03,07,14.70
2007,08,18,03,08,14.70
2007,08,18,03,09,14.70
2007,08,18,03,10,14.70
2007,08,18,03,11,14.70
2007,08,18,03,12,14.70
2007,08,18,03,13,14.70
2007,08,18,03,14,14.70
2007,08,18,03,15,14.70
2007,08,18,03,16,14.70
2007,08,18,03,17,14.70
2007,08,18,03,18,14.70
2007,08,18,03,19,14.70
2007,08,18,03,20,14.70
2007,08,18,03,21,14.70
2007,08,18,03,22,14.70
2007,08,18,03,23,14.70
2007,08,18,03,24,14.60
2007,08,18,03,25,14.60
2007,08,18,03,26,14.60
2007,08,18,03,27,14.60
2007,08,18,03,28,14.60
2007,08,18,03,29,14.60
2007,08,18,03,30,14.60
2007,08,18,03,31,14.60
2007,08,18,03,32,14.60
2007,08,18,03,33,14.60
2007,08,18,03,34,14.60
2007,08,18,03,35,14.60
2007,08,18,03,36,14.60
2007,08,18,03,37,14.50
2007,08,18,03,38,14.50
2007,08,18,03,39,14.50
2007,08,18,03,40,14.50
2007,08,18,03,41,14.50
2007,08,18,03,42,14.40
2007,08,18,03,43,14.40
2007,08,18,03,44,14.40
2007,08,18,03,45,14.40
2007,08,18,03,46,14.40
2007,08,18,03,47,14.40
2007,08,18,03,48,14.40
2007,08,18,03,49,14.40
2007,08,18,03,50,14.40
2007,08,18,03,51,14.40
2007,08,18,03,52,14.40
2007,08,18,03,53,14.40
2007,08,18,03,54,14.40
2007,08,18,03,55,14.40
2007,08,18,03,56,14.40
2007,08,18,03,57,14.40
2007,08,18,03,58,14.40
2007,08,18,03,59,14.40
2007,08,18,04,00,14.40
2007,08,18,04,01,14.40
2007,08,18,04,02,14.40
2007,08,18,04,03,14.40
2007,08,18,04,04,14.40
2007,08,18,04,05,14.50
2007,08,18,04,06,14.50
2007,08,18,04,07,14.50
2007,08,18,04,08,14.50
2007,08,18,04,09,14.50
2007,08,18,04,10,14.50
2007,08,18,04,11,14.50
2007,08,18,04,12,14.50
2007,08,18,04,13,14.50
2007,08,18,04,14,14.50
2007,08,18,04,15,14.40
2007,08,18,04,16,14.50
2007,08,18,04,17,14.40
2007,08,18,04,18,14.40
2007,08,18,04,19,14.40
2007,08,18,04,20,14.40
2007,08,18,04,21,14.40
2007,08,18,04,22,14.40
2007,08,18,04,23,14.40
2007,08,18,04,24,14.40
2007,08,18,04,25,14.40
2007,08,18,04,26,14.40
2007,08,18,04,27,14.40
2007,08,18,04,28,14.40
2007,08,18,04,29,14.40
2007,08,18,04,30,14.40
2007,08,18,04,31,14.40
2007,08,18,04,32,14.40
2007,08,18,04,33,14.30
2007,08,18,04,34,14.30
2007,08,18,04,35,14.30
2007,08,18,04,36,14.30
2007,08,18,04,37,14.30
2007,08,18,04,38,14.30
2007,08,18,04,39,14.30
2007,08,18,04,40,14.30
2007,08,18,04,41,14.30
2007,08,18,04,42,14.30
2007,08,18,04,43,14.30
2007,08,18,04,44,14.40
2007,08,18,04,45,14.40
2007,08,18,04,46,14.40
2007,08,18,04,47,14.40
2007,08,18,04,48,14.40
2007,08,18,04,49,14.40
2007,08,18,04,50,14.40
2007,08,18,04,51,14.30
2007,08,18,04,52,14.30
2007,08,18,04,53,14.30
2007,08,18,04,54,14.30
2007,08,18,04,55,14.30
2007,08,18,04,56,14.30
2007,08,18,04,57,14.30
2007,08,18,04,58,14.30
2007,08,18,04,59,14.30
2007,08,18,05,00,14.20
2007,08,18,05,01,14.20
2007,08,18,05,02,14.20
2007,08,18,05,03,14.20
2007,08,18,05,04,14.20
2007,08,18,05,05,14.10
2007,08,18,05,06,14.10
2007,08,18,05,07,14.10
2007,08,18,05,08,14.10
2007,08,18,05,09,14.00
2007,08,18,05,10,14.00
2007,08,18,05,11,13.90
2007,08,18,05,12,13.90
2007,08,18,05,13,13.90
2007,08,18,05,14,13.80
2007,08,18,05,15,13.80
2007,08,18,05,16,13.80
2007,08,18,05,17,13.80
2007,08,18,05,18,13.70
2007,08,18,05,19,13.70
2007,08,18,05,20,13.70
2007,08,18,05,21,13.70
2007,08,18,05,22,13.60
2007,08,18,05,23,13.60
2007,08,18,05,24,13.60
2007,08,18,05,25,13.60
2007,08,18,05,26,13.60
2007,08,18,05,27,13.60
2007,08,18,05,28,13.60
2007,08,18,05,29,13.60
2007,08,18,05,30,13.60
2007,08,18,05,31,13.60
2007,08,18,05,32,13.60
2007,08,18,05,33,13.60
2007,08,18,05,34,13.60
2007,08,18,05,35,13.60
2007,08,18,05,36,13.60
2007,08,18,05,37,13.60
2007,08,18,05,38,13.60
2007,08,18,05,39,13.50
2007,08,18,05,40,13.50
2007,08,18,05,41,13.50
2007,08,18,05,42,13.50
2007,08,18,05,43,13.40
2007,08,18,05,44,13.40
2007,08,18,05,45,13.40
2007,08,18,05,46,13.40
2007,08,18,05,47,13.40
2007,08,18,05,48,13.30
2007,08,18,05,49,13.30
2007,08,18,05,50,13.30
2007,08,18,05,51,13.30
2007,08,18,05,52,13.30
2007,08,18,05,53,13.20
2007,08,18,05,54,13.20
2007,08,18,05,55,13.20
2007,08,18,05,56,13.20
2007,08,18,05,57,13.20
2007,08,18,05,58,13.20
2007,08,18,05,59,13.20
2007,08,18,06,00,13.20
2007,08,18,06,01,13.20
2007,08,18,06,02,13.20
2007,08,18,06,03,13.20
2007,08,18,06,04,13.20
2007,08,18,06,05,13.20
2007,08,18,06,06,13.20
2007,08,18,06,07,13.20
2007,08,18,06,08,13.20
2007,08,18,06,09,13.20
2007,08,18,06,10,13.20
2007,08,18,06,11,13.20
2007,08,18,06,12,13.20
2007,08,18,06,13,13.20
2007,08,18,06,14,13.20
2007,08,18,06,15,13.20
2007,08,18,06,16,13.20
2007,08,18,06,17,13.20
2007,08,18,06,18,13.20
2007,08,18,06,19,13.20
2007,08,18,06,20,13.20
2007,08,18,06,21,13.20
2007,08,18,06,22,13.20
2007,08,18,06,23,13.20
2007,08,18,06,24,13.30
2007,08,18,06,25,13.20
2007,08,18,06,26,13.20
2007,08,18,06,27,13.20
2007,08,18,06,28,13.30
2007,08,18,06,29,13.30
2007,08,18,06,30,13.30
2007,08,18,06,31,13.30
2007,08,18,06,32,13.30
2007,08,18,06,33,13.30
2007,08,18,06,34,13.30
2007,08,18,06,35,13.30
2007,08,18,06,36,13.30
2007,08,18,06,37,13.30
2007,08,18,06,38,13.30
2007,08,18,06,39,13.30
2007,08,18,06,40,13.30
2007,08,18,06,41,13.30
2007,08,18,06,42,13.30
2007,08,18,06,43,13.30
2007,08,18,06,44,13.30
2007,08,18,06,45,13.30
2007,08,18,06,46,13.30
2007,08,18,06,47,13.30
2007,08,18,06,48,13.30
2007,08,18,06,49,13.30
2007,08,18,06,50,13.30
2007,08,18,06,51,13.30
2007,08,18,06,52,13.30
2007,08,18,06,53,13.20
2007,08,18,06,54,13.30
2007,08,18,06,55,13.30
2007,08,18,06,56,13.30
2007,08,18,06,57,13.30
2007,08,18,06,58,13.30
2007,08,18,06,59,13.30
2007,08,18,07,00,13.30
2007,08,18,07,01,13.30
2007,08,18,07,02,13.30
2007,08,18,07,03,13.30
2007,08,18,07,04,13.30
2007,08,18,07,05,13.30
2007,08,18,07,06,13.30
2007,08,18,07,07,13.40
2007,08,18,07,08,13.40
2007,08,18,07,09,13.40
2007,08,18,07,10,13.40
2007,08,18,07,11,13.40
2007,08,18,07,12,13.40
2007,08,18,07,13,13.50
2007,08,18,07,14,13.50
2007,08,18,07,15,13.50
2007,08,18,07,16,13.50
2007,08,18,07,17,13.50
2007,08,18,07,18,13.50
2007,08,18,07,19,13.50
2007,08,18,07,20,13.60
2007,08,18,07,21,13.60
2007,08,18,07,22,13.60
2007,08,18,07,23,13.60
2007,08,18,07,24,13.60
2007,08,18,07,25,13.60
2007,08,18,07,26,13.60
2007,08,18,07,27,13.70
2007,08,18,07,28,13.70
2007,08,18,07,29,13.70
2007,08,18,07,30,13.70
2007,08,18,07,31,13.70
2007,08,18,07,32,13.80
2007,08,18,07,33,13.80
2007,08,18,07,34,13.80
2007,08,18,07,35,13.80
2007,08,18,07,36,13.80
2007,08,18,07,37,13.90
2007,08,18,07,38,13.90
2007,08,18,07,39,13.90
2007,08,18,07,40,14.00
2007,08,18,07,41,14.00
2007,08,18,07,42,14.10
2007,08,18,07,43,14.10
2007,08,18,07,44,14.10
2007,08,18,07,45,14.20
2007,08,18,07,46,14.20
2007,08,18,07,47,14.20
2007,08,18,07,48,14.30
2007,08,18,07,49,14.30
2007,08,18,07,50,14.30
2007,08,18,07,51,14.40
2007,08,18,07,52,14.40
2007,08,18,07,53,14.40
2007,08,18,07,54,14.50
2007,08,18,07,55,14.50
2007,08,18,07,56,14.60
2007,08,18,07,57,14.60
2007,08,18,07,58,14.60
2007,08,18,07,59,14.60
2007,08,18,08,00,14.70
2007,08,18,08,01,14.70
2007,08,18,08,02,14.70
2007,08,18,08,03,14.80
2007,08,18,08,04,14.80
2007,08,18,08,05,14.80
2007,08,18,08,06,14.80
2007,08,18,08,07,14.80
2007,08,18,08,08,14.80
2007,08,18,08,09,14.80
2007,08,18,08,10,14.90
2007,08,18,08,11,14.90
2007,08,18,08,12,14.90
2007,08,18,08,13,14.90
2007,08,18,08,14,15.00
2007,08,18,08,15,15.00
2007,08,18,08,16,15.00
2007,08,18,08,17,15.00
2007,08,18,08,18,15.00
2007,08,18,08,19,15.00
2007,08,18,08,20,15.00
2007,08,18,08,21,15.00
2007,08,18,08,22,14.90
2007,08,18,08,23,14.90
2007,08,18,08,24,14.80
2007,08,18,08,25,14.80
2007,08,18,08,26,14.80
2007,08,18,08,27,14.70
2007,08,18,08,28,14.70
2007,08,18,08,29,14.70
2007,08,18,08,30,14.70
2007,08,18,08,31,14.70
2007,08,18,08,32,14.70
2007,08,18,08,33,14.70
2007,08,18,08,34,14.70
2007,08,18,08,35,14.70
2007,08,18,08,36,14.70
2007,08,18,08,37,14.70
2007,08,18,08,38,14.70
2007,08,18,08,39,14.70
2007,08,18,08,40,14.70
2007,08,18,08,41,14.70
2007,08,18,08,42,14.80
2007,08,18,08,43,14.80
2007,08,18,08,44,14.80
2007,08,18,08,45,14.80
2007,08,18,08,46,14.80
2007,08,18,08,47,14.80
2007,08,18,08,48,14.80
2007,08,18,08,49,14.80
2007,08,18,08,50,14.80
2007,08,18,08,51,14.80
2007,08,18,08,52,14.80
2007,08,18,08,53,14.90
2007,08,18,08,54,15.00
2007,08,18,08,55,15.00
2007,08,18,08,56,15.00
2007,08,18,08,57,15.00
2007,08,18,08,58,15.00
2007,08,18,08,59,15.00
2007,08,18,09,00,15.00
2007,08,18,09,01,15.00
2007,08,18,09,02,15.10
2007,08,18,09,03,15.10
2007,08,18,09,04,15.20
2007,08,18,09,05,15.20
2007,08,18,09,06,15.20
2007,08,18,09,07,15.20
2007,08,18,09,08,15.20
2007,08,18,09,09,15.20
2007,08,18,09,10,15.20
2007,08,18,09,11,15.20
2007,08,18,09,12,15.20
2007,08,18,09,13,15.20
2007,08,18,09,14,15.20
2007,08,18,09,15,15.20
2007,08,18,09,16,15.20
2007,08,18,09,17,15.20
2007,08,18,09,18,15.20
2007,08,18,09,19,15.20
2007,08,18,09,20,15.20
2007,08,18,09,21,15.20
2007,08,18,09,22,15.30
2007,08,18,09,23,15.30
2007,08,18,09,24,15.30
2007,08,18,09,25,15.30
2007,08,18,09,26,15.40
2007,08,18,09,27,15.50
2007,08,18,09,28,15.50
2007,08,18,09,29,15.60
2007,08,18,09,30,15.60
2007,08,18,09,31,15.60
2007,08,18,09,32,15.60
2007,08,18,09,33,15.60
2007,08,18,09,34,15.70
2007,08,18,09,35,15.70
2007,08,18,09,36,15.70
2007,08,18,09,37,15.80
2007,08,18,09,38,15.80
2007,08,18,09,39,15.80
2007,08,18,09,40,15.80
2007,08,18,09,41,15.80
2007,08,18,09,42,15.80
2007,08,18,09,43,15.80
2007,08,18,09,44,15.80
2007,08,18,09,45,15.80
2007,08,18,09,46,15.80
2007,08,18,09,47,15.80
2007,08,18,09,48,15.80
2007,08,18,09,49,15.80
2007,08,18,09,50,15.80
2007,08,18,09,51,15.80
2007,08,18,09,52,15.80
2007,08,18,09,53,15.80
2007,08,18,09,54,15.80
2007,08,18,09,55,15.90
2007,08,18,09,56,15.80
2007,08,18,09,57,15.90
2007,08,18,09,58,15.90
2007,08,18,09,59,15.90
2007,08,18,10,00,15.90
2007,08,18,10,01,16.00
2007,08,18,10,02,16.00
2007,08,18,10,03,16.10
2007,08,18,10,04,16.10
2007,08,18,10,05,16.10
2007,08,18,10,06,16.10
2007,08,18,10,07,16.10
2007,08,18,10,08,16.10
2007,08,18,10,09,16.20
2007,08,18,10,10,16.20
2007,08,18,10,11,16.20
2007,08,18,10,12,16.20
2007,08,18,10,13,16.30
2007,08,18,10,14,16.30
2007,08,18,10,15,16.30
2007,08,18,10,16,16.30
2007,08,18,10,17,16.30
2007,08,18,10,18,16.30
2007,08,18,10,19,16.30
2007,08,18,10,20,16.40
2007,08,18,10,21,16.40
2007,08,18,10,22,16.40
2007,08,18,10,23,16.40
2007,08,18,10,24,16.40
2007,08,18,10,25,16.40
2007,08,18,10,26,16.40
2007,08,18,10,27,16.40
2007,08,18,10,28,16.40
2007,08,18,10,29,16.40
2007,08,18,10,30,16.40
2007,08,18,10,31,16.40
2007,08,18,10,32,16.40
2007,08,18,10,33,16.40
2007,08,18,10,34,16.40
2007,08,18,10,35,16.50
2007,08,18,10,36,16.50
2007,08,18,10,37,16.60
2007,08,18,10,38,16.60
2007,08,18,10,39,16.60
2007,08,18,10,40,16.70
2007,08,18,10,41,16.70
2007,08,18,10,42,16.70
2007,08,18,10,43,16.70
2007,08,18,10,44,16.80
2007,08,18,10,45,16.80
2007,08,18,10,46,16.80
2007,08,18,10,47,16.80
2007,08,18,10,48,16.80
2007,08,18,10,49,16.80
2007,08,18,10,50,16.90
2007,08,18,10,51,16.90
2007,08,18,10,52,16.90
2007,08,18,10,53,17.00
2007,08,18,10,54,17.00
2007,08,18,10,55,17.00
2007,08,18,10,56,17.00
2007,08,18,10,57,17.00
2007,08,18,10,58,17.00
2007,08,18,10,59,17.10
2007,08,18,11,00,17.10
2007,08,18,11,01,17.10
2007,08,18,11,02,17.10
2007,08,18,11,03,17.20
2007,08,18,11,04,17.20
2007,08,18,11,05,17.30
2007,08,18,11,06,17.30
2007,08,18,11,07,17.40
2007,08,18,11,08,17.40
2007,08,18,11,09,17.40
2007,08,18,11,10,17.40
2007,08,18,11,11,17.40
2007,08,18,11,12,17.30
2007,08,18,11,13,17.30
2007,08,18,11,14,17.30
2007,08,18,11,15,17.30
2007,08,18,11,16,17.30
2007,08,18,11,17,17.20
2007,08,18,11,18,17.20
2007,08,18,11,19,17.20
2007,08,18,11,20,17.20
2007,08,18,11,21,17.30
2007,08,18,11,22,17.40
2007,08,18,11,23,17.40
2007,08,18,11,24,17.50
2007,08,18,11,25,17.60
2007,08,18,11,26,17.60
2007,08,18,11,27,17.60
2007,08,18,11,28,17.70
2007,08,18,11,29,17.80
2007,08,18,11,30,17.90
2007,08,18,11,31,17.90
2007,08,18,11,32,18.00
2007,08,18,11,33,18.00
2007,08,18,11,34,18.10
2007,08,18,11,35,18.20
2007,08,18,11,36,18.20
2007,08,18,11,37,18.20
2007,08,18,11,38,18.20
2007,08,18,11,39,18.10
2007,08,18,11,40,18.10
2007,08,18,11,41,18.10
2007,08,18,11,42,18.10
2007,08,18,11,43,18.10
2007,08,18,11,44,18.10
2007,08,18,11,45,18.10
2007,08,18,11,46,18.10
2007,08,18,11,47,18.10
2007,08,18,11,48,18.00
2007,08,18,11,49,18.00
2007,08,18,11,50,18.00
2007,08,18,11,51,18.10
2007,08,18,11,52,18.10
2007,08,18,11,53,18.10
2007,08,18,11,54,18.20
2007,08,18,11,55,18.20
2007,08,18,11,56,18.20
2007,08,18,11,57,18.30
2007,08,18,11,58,18.30
2007,08,18,11,59,18.30
2007,08,18,12,00,18.20
2007,08,18,12,01,18.20
2007,08,18,12,02,18.00
2007,08,18,12,03,18.00
2007,08,18,12,04,17.90
2007,08,18,12,05,17.90
2007,08,18,12,06,18.00
2007,08,18,12,07,18.10
2007,08,18,12,08,18.20
2007,08,18,12,09,18.20
2007,08,18,12,10,18.30
2007,08,18,12,11,18.50
2007,08,18,12,12,18.70
2007,08,18,12,13,18.70
2007,08,18,12,14,18.80
2007,08,18,12,15,18.80
2007,08,18,12,16,18.80
2007,08,18,12,17,18.80
2007,08,18,12,18,18.70
2007,08,18,12,19,18.60
2007,08,18,12,20,18.60
2007,08,18,12,21,18.60
2007,08,18,12,22,18.70
2007,08,18,12,23,18.70
2007,08,18,12,24,18.80
2007,08,18,12,25,18.80
2007,08,18,12,26,18.90
2007,08,18,12,27,19.00
2007,08,18,12,28,19.20
2007,08,18,12,29,19.30
2007,08,18,12,30,19.30
2007,08,18,12,31,19.40
2007,08,18,12,32,19.50
2007,08,18,12,33,19.60
2007,08,18,12,34,19.70
2007,08,18,12,35,19.80
2007,08,18,12,36,19.80
2007,08,18,12,37,19.80
2007,08,18,12,38,19.90
2007,08,18,12,39,19.90
2007,08,18,12,40,19.90
2007,08,18,12,41,20.00
2007,08,18,12,42,20.10
2007,08,18,12,43,20.20
2007,08,18,12,44,20.20
2007,08,18,12,45,20.30
2007,08,18,12,46,20.40
2007,08,18,12,47,20.40
2007,08,18,12,48,20.40
2007,08,18,12,49,20.20
2007,08,18,12,50,20.00
2007,08,18,12,51,19.80
2007,08,18,12,52,19.60
2007,08,18,12,53,19.60
2007,08,18,12,54,19.60
2007,08,18,12,55,19.60
2007,08,18,12,56,19.60
2007,08,18,12,57,19.60
2007,08,18,12,58,19.60
2007,08,18,12,59,19.60
2007,08,18,13,00,19.60
2007,08,18,13,01,19.70
2007,08,18,13,02,19.70
2007,08,18,13,03,19.70
2007,08,18,13,04,19.70
2007,08,18,13,05,19.60
2007,08,18,13,06,19.60
2007,08,18,13,07,19.50
2007,08,18,13,08,19.50
2007,08,18,13,09,19.50
2007,08,18,13,10,19.50
2007,08,18,13,11,19.50
2007,08,18,13,12,19.60
2007,08,18,13,13,19.60
2007,08,18,13,14,19.60
2007,08,18,13,15,19.40
2007,08,18,13,16,19.30
2007,08,18,13,17,19.30
2007,08,18,13,18,19.20
2007,08,18,13,19,19.10
2007,08,18,13,20,19.00
2007,08,18,13,21,18.90
2007,08,18,13,22,18.90
2007,08,18,13,23,18.90
2007,08,18,13,24,18.90
2007,08,18,13,25,18.90
2007,08,18,13,26,19.00
2007,08,18,13,27,19.00
2007,08,18,13,28,18.90
2007,08,18,13,29,18.90
2007,08,18,13,30,18.90
2007,08,18,13,31,18.90
2007,08,18,13,32,18.80
2007,08,18,13,33,18.80
2007,08,18,13,34,18.70
2007,08,18,13,35,18.70
2007,08,18,13,36,18.70
2007,08,18,13,37,18.70
2007,08,18,13,38,18.80
2007,08,18,13,39,18.90
2007,08,18,13,40,19.00
2007,08,18,13,41,19.10
2007,08,18,13,42,19.10
2007,08,18,13,43,19.10
2007,08,18,13,44,19.10
2007,08,18,13,45,19.00
2007,08,18,13,46,19.00
2007,08,18,13,47,18.90
2007,08,18,13,48,18.90
2007,08,18,13,49,18.90
2007,08,18,13,50,18.80
2007,08,18,13,51,18.70
2007,08,18,13,52,18.70
2007,08,18,13,53,18.70
2007,08,18,13,54,18.60
2007,08,18,13,55,18.50
2007,08,18,13,56,18.50
2007,08,18,13,57,18.60
2007,08,18,13,58,18.60
2007,08,18,13,59,18.60
2007,08,18,14,00,18.50
2007,08,18,14,01,18.50
2007,08,18,14,02,18.60
2007,08,18,14,03,18.60
2007,08,18,14,04,18.50
2007,08,18,14,05,18.40
2007,08,18,14,06,18.30
2007,08,18,14,07,18.30
2007,08,18,14,08,18.30
2007,08,18,14,09,18.40
2007,08,18,14,10,18.40
2007,08,18,14,11,18.40
2007,08,18,14,12,18.30
2007,08,18,14,13,18.30
2007,08,18,14,14,18.30
2007,08,18,14,15,18.30
2007,08,18,14,16,18.30
2007,08,18,14,17,18.30
2007,08,18,14,18,18.30
2007,08,18,14,19,18.20
2007,08,18,14,20,18.20
2007,08,18,14,21,18.20
2007,08,18,14,22,18.20
2007,08,18,14,23,18.20
2007,08,18,14,24,18.20
2007,08,18,14,25,18.20
2007,08,18,14,26,18.20
2007,08,18,14,27,18.30
2007,08,18,14,28,18.30
2007,08,18,14,29,18.40
2007,08,18,14,30,18.40
2007,08,18,14,31,18.40
2007,08,18,14,32,18.50
2007,08,18,14,33,18.50
2007,08,18,14,34,18.50
2007,08,18,14,35,18.50
2007,08,18,14,36,18.60
2007,08,18,14,37,18.60
2007,08,18,14,38,18.70
2007,08,18,14,39,18.90
2007,08,18,14,40,19.00
2007,08,18,14,41,19.20
2007,08,18,14,42,19.30
2007,08,18,14,43,19.40
2007,08,18,14,44,19.50
2007,08,18,14,45,19.50
2007,08,18,14,46,19.60
2007,08,18,14,47,19.70
2007,08,18,14,48,19.70
2007,08,18,14,49,19.70
2007,08,18,14,50,19.70
2007,08,18,14,51,19.80
2007,08,18,14,52,19.80
2007,08,18,14,53,19.80
2007,08,18,14,54,19.80
2007,08,18,14,55,19.80
2007,08,18,14,56,19.80
2007,08,18,14,57,19.80
2007,08,18,14,58,19.80
2007,08,18,14,59,19.80
2007,08,18,15,00,19.70
2007,08,18,15,01,19.70
2007,08,18,15,02,19.70
2007,08,18,15,03,19.80
2007,08,18,15,04,19.80
2007,08,18,15,05,19.80
2007,08,18,15,06,19.80
2007,08,18,15,07,19.70
2007,08,18,15,08,19.70
2007,08,18,15,09,19.70
2007,08,18,15,10,19.70
2007,08,18,15,11,19.80
2007,08,18,15,12,19.80
2007,08,18,15,13,19.80
2007,08,18,15,14,19.90
2007,08,18,15,15,19.90
2007,08,18,15,16,20.00
2007,08,18,15,17,20.00
2007,08,18,15,18,20.00
2007,08,18,15,19,20.00
2007,08,18,15,20,20.00
2007,08,18,15,21,20.00
2007,08,18,15,22,20.00
2007,08,18,15,23,20.10
2007,08,18,15,24,20.10
2007,08,18,15,25,20.10
2007,08,18,15,26,20.20
2007,08,18,15,27,20.10
2007,08,18,15,28,20.10
2007,08,18,15,29,20.10
2007,08,18,15,30,20.10
2007,08,18,15,31,20.00
2007,08,18,15,32,20.00
2007,08,18,15,33,20.00
2007,08,18,15,34,20.00
2007,08,18,15,35,19.90
2007,08,18,15,36,19.80
2007,08,18,15,37,19.50
2007,08,18,15,38,19.30
2007,08,18,15,39,19.10
2007,08,18,15,40,19.00
2007,08,18,15,41,18.80
2007,08,18,15,42,18.70
2007,08,18,15,43,18.60
2007,08,18,15,44,18.60
2007,08,18,15,45,18.50
2007,08,18,15,46,18.40
2007,08,18,15,47,18.30
2007,08,18,15,48,18.30
2007,08,18,15,49,18.20
2007,08,18,15,50,18.10
2007,08,18,15,51,18.00
2007,08,18,15,52,17.90
2007,08,18,15,53,17.80
2007,08,18,15,54,17.70
2007,08,18,15,55,17.70
2007,08,18,15,56,17.70
2007,08,18,15,57,17.70
2007,08,18,15,58,17.60
2007,08,18,15,59,17.60
2007,08,18,16,00,17.50
2007,08,18,16,01,17.40
2007,08,18,16,02,17.30
2007,08,18,16,03,17.20
2007,08,18,16,04,17.10
2007,08,18,16,05,17.10
2007,08,18,16,06,17.00
2007,08,18,16,07,16.90
2007,08,18,16,08,16.80
2007,08,18,16,09,16.70
2007,08,18,16,10,16.70
2007,08,18,16,11,16.60
2007,08,18,16,12,16.60
2007,08,18,16,13,16.50
2007,08,18,16,14,16.40
2007,08,18,16,15,16.40
2007,08,18,16,16,16.30
2007,08,18,16,17,16.20
2007,08,18,16,18,16.20
2007,08,18,16,19,16.10
2007,08,18,16,20,16.10
2007,08,18,16,21,16.00
2007,08,18,16,22,16.00
2007,08,18,16,23,15.90
2007,08,18,16,24,15.90
2007,08,18,16,25,15.80
2007,08,18,16,26,15.80
2007,08,18,16,27,15.80
2007,08,18,16,28,15.80
2007,08,18,16,29,15.80
2007,08,18,16,30,15.80
2007,08,18,16,31,15.80
2007,08,18,16,32,15.80
2007,08,18,16,33,15.80
2007,08,18,16,34,15.80
2007,08,18,16,35,15.80
2007,08,18,16,36,15.80
2007,08,18,16,37,15.80
2007,08,18,16,38,15.80
2007,08,18,16,39,15.80
2007,08,18,16,40,15.70
2007,08,18,16,41,15.70
2007,08,18,16,42,15.70
2007,08,18,16,43,15.70
2007,08,18,16,44,15.60
2007,08,18,16,45,15.60
2007,08,18,16,46,15.60
2007,08,18,16,47,15.60
2007,08,18,16,48,15.50
2007,08,18,16,49,15.50
2007,08,18,16,50,15.50
2007,08,18,16,51,15.50
2007,08,18,16,52,15.50
2007,08,18,16,53,15.50
2007,08,18,16,54,15.40
2007,08,18,16,55,15.40
2007,08,18,16,56,15.40
2007,08,18,16,57,15.50
2007,08,18,16,58,15.50
2007,08,18,16,59,15.50
2007,08,18,17,00,15.50
2007,08,18,17,01,15.60
2007,08,18,17,02,15.60
2007,08,18,17,03,15.60
2007,08,18,17,04,15.60
2007,08,18,17,05,15.60
2007,08,18,17,06,15.70
2007,08,18,17,07,15.70
2007,08,18,17,08,15.70
2007,08,18,17,09,15.70
2007,08,18,17,10,15.80
2007,08,18,17,11,15.80
2007,08,18,17,12,15.90
2007,08,18,17,13,15.90
2007,08,18,17,14,15.90
2007,08,18,17,15,15.90
2007,08,18,17,16,16.00
2007,08,18,17,17,16.00
2007,08,18,17,18,16.00
2007,08,18,17,19,16.00